Change the Weather History Date:

Thursday, July 18, 2013

  Actual Average Record
Temperature  
Mean Temperature 85 °F -  
Max Temperature 96 °F 86 °F 98 °F (2011)
Min Temperature 75 °F 63 °F 51 °F (1971)
Cooling Degree Days 20    
Growing Degree Days 35 (Base 50)    
Moisture  
Dew Point 72 °F    
Average Humidity 66    
Maximum Humidity 87    
Minimum Humidity 41    
Precipitation  
Precipitation 0.45 in - - ()
Sea Level Pressure  
Sea Level Pressure 30.08 in    
Wind  
Wind Speed 5 mph (SW)    
Max Wind Speed 20 mph    
Max Gust Speed 31 mph    
Visibility 9 miles    
Events Rain    
Averages and records for this station are not official NWS values.
T = Trace of Precipitation, MM = Missing Value Source: NWS Daily Summary

Daily Weather History Graph

Daily Weather History Graph

Search for Another Location

Airport or City:

Trip Planner

Search our weather history database for the weather conditions in past years. The results will help you decide how hot, cold, wet, or windy it might be!

Date:

Astronomy

Jul. 18, 2013 Rise Set
Actual Time 6:13 AM EDT 9:06 PM EDT
Civil Twilight 5:40 AM EDT 9:39 PM EDT
Nautical Twilight 4:58 AM EDT 10:21 PM EDT
Astronomical Twilight 4:09 AM EDT 11:09 PM EDT
Moon 5:01 PM EDT (7/18) 2:04 AM EDT (7/18)
Length of Visible Light 15h 58m
Length of Day
14h 52m
Waxing Gibbous, 77% of the Moon is Illuminated
Jul 18
Waxing Gibbous
Jul 22
Full
Jul 29
Last Quarter
Aug 6
New
Aug 14
First Quarter

Hourly Weather History & Observations

Time (EDT) Temp. Heat Index Dew Point Humidity Pressure Visibility Wind Dir Wind Speed Gust Speed Precip Events Conditions
12:53 AM 82.9 °F 88.0 °F 72.0 °F 69% 30.16 in 10.0 mi WNW 5.8 mph - N/A   Clear
1:53 AM 79.0 °F - 72.0 °F 79% 30.15 in 10.0 mi Calm Calm - N/A   Clear
2:53 AM 79.0 °F - 72.0 °F 79% 30.14 in 10.0 mi West 5.8 mph - 0.00 in   Clear
3:53 AM 78.1 °F - 71.1 °F 79% 30.14 in 10.0 mi Calm Calm - N/A   Clear
4:53 AM 75.9 °F - 70.0 °F 82% 30.14 in 9.0 mi South 3.5 mph - N/A   Clear
5:53 AM 75.0 °F - 71.1 °F 87% 30.13 in 8.0 mi SW 4.6 mph - N/A   Clear
6:53 AM 77.0 °F - 70.0 °F 79% 30.13 in 7.0 mi West 3.5 mph - N/A   Clear
7:53 AM 82.0 °F 86.7 °F 72.0 °F 71% 30.14 in 10.0 mi Calm Calm - N/A   Clear
8:53 AM 84.0 °F 90.2 °F 73.0 °F 69% 30.14 in 10.0 mi SW 3.5 mph - N/A   Clear
9:53 AM 87.1 °F 95.4 °F 73.9 °F 65% 30.12 in 10.0 mi Calm Calm - N/A   Partly Cloudy
10:53 AM 90.0 °F 100.2 °F 75.0 °F 61% 30.12 in 10.0 mi Variable 3.5 mph - N/A   Clear
11:53 AM 93.0 °F 104.6 °F 75.0 °F 56% 30.11 in 10.0 mi SW 8.1 mph - N/A   Mostly Cloudy
12:09 PM 80.6 °F 84.6 °F 71.6 °F 74% 30.14 in 1.5 mi NNW 19.6 mph 31.1 mph 0.12 in Rain Heavy Rain
12:17 PM 82.4 °F 86.3 °F 69.8 °F 66% 30.14 in 0.5 mi East 8.1 mph 23.0 mph 0.37 in Rain Heavy Rain
12:28 PM 86.0 °F 90.4 °F 69.8 °F 58% 30.13 in 2.0 mi Calm Calm - 0.45 in Rain Light Rain
12:35 PM 86.0 °F 91.8 °F 71.6 °F 62% 30.13 in 10.0 mi Calm Calm - 0.45 in   Mostly Cloudy
12:53 PM 84.9 °F 94.1 °F 75.9 °F 74% 30.11 in 10.0 mi East 4.6 mph - 0.45 in   Scattered Clouds
1:53 PM 91.0 °F 102.9 °F 75.9 °F 61% 30.08 in 10.0 mi East 4.6 mph - 0.00 in   Mostly Cloudy
2:53 PM 95.0 °F 105.2 °F 73.9 °F 50% 30.06 in 10.0 mi SW 10.4 mph - N/A   Partly Cloudy
3:53 PM 95.0 °F 101.3 °F 70.0 °F 44% 30.03 in 10.0 mi WSW 13.8 mph - N/A   Clear
4:53 PM 91.9 °F 100.7 °F 73.0 °F 54% 30.01 in 10.0 mi West 11.5 mph - N/A   Scattered Clouds
5:53 PM 93.9 °F 97.5 °F 66.9 °F 41% 29.99 in 10.0 mi West 12.7 mph - N/A   Clear
6:53 PM 93.0 °F 100.7 °F 72.0 °F 50% 29.99 in 10.0 mi WSW 10.4 mph - N/A   Clear
7:53 PM 91.0 °F 99.3 °F 73.0 °F 55% 29.97 in 10.0 mi WSW 8.1 mph - N/A   Clear
8:53 PM 87.1 °F 94.5 °F 73.0 °F 63% 29.97 in 10.0 mi SW 6.9 mph - N/A   Clear
9:53 PM 84.0 °F 91.2 °F 73.9 °F 72% 29.97 in 10.0 mi SSW 5.8 mph - N/A   Clear
10:53 PM 84.0 °F 91.2 °F 73.9 °F 72% 29.97 in 10.0 mi SW 6.9 mph - N/A   Clear
11:53 PM 82.9 °F 89.4 °F 73.9 °F 74% 29.97 in 10.0 mi SSW 10.4 mph - N/A   Clear